Time,TemperatureF,DewpointF,PressureIn,WindDirection,WindDirectionDegrees,WindSpeedMPH,WindSpeedGustMPH,Humidity,HourlyPrecipIn,Conditions,Clouds,dailyrainin,SoftwareType,DateUTC
2013-04-25 00:01:00,39.0,23.0,-100.00,SE,140,11.0,13.0,52,0.00,,,-99.99,,2013-04-25 06:01:00,
2013-04-25 00:11:00,39.0,23.0,-100.00,SSE,147,15.0,17.0,51,0.00,,,-99.99,,2013-04-25 06:11:00,
2013-04-25 00:22:00,38.0,23.0,-100.00,SE,141,11.0,13.0,54,0.00,,,-99.99,,2013-04-25 06:22:00,
2013-04-25 00:31:00,38.0,23.0,-100.00,SE,141,11.0,13.0,54,0.00,,,-99.99,,2013-04-25 06:31:00,
2013-04-25 00:41:00,39.0,23.0,-100.00,SE,140,12.0,14.0,52,0.00,,,-99.99,,2013-04-25 06:41:00,
2013-04-25 00:52:00,41.0,22.0,-100.00,SE,145,14.0,16.0,46,0.00,,,-99.99,,2013-04-25 06:52:00,
2013-04-25 01:01:00,41.0,22.0,-100.00,SE,145,14.0,16.0,46,0.00,,,-99.99,,2013-04-25 07:01:00,
2013-04-25 01:11:00,41.0,22.0,-100.00,SSE,148,13.0,14.0,46,0.00,,,-99.99,,2013-04-25 07:11:00,
2013-04-25 01:21:00,41.0,22.0,-100.00,SSE,147,13.0,15.0,47,0.00,,,-99.99,,2013-04-25 07:21:00,
2013-04-25 01:31:00,41.0,22.0,-100.00,SSE,147,13.0,15.0,47,0.00,,,-99.99,,2013-04-25 07:31:00,
2013-04-25 01:42:00,41.0,22.0,-100.00,SSE,147,13.0,15.0,47,0.00,,,-99.99,,2013-04-25 07:42:00,
2013-04-25 01:52:00,40.0,23.0,-100.00,SE,144,11.0,13.0,50,0.00,,,-99.99,,2013-04-25 07:52:00,
2013-04-25 02:01:00,40.0,23.0,-100.00,SE,144,11.0,13.0,50,0.00,,,-99.99,,2013-04-25 08:01:00,
2013-04-25 02:11:00,40.0,22.0,-100.00,SSE,147,14.0,15.0,49,0.00,,,-99.99,,2013-04-25 08:11:00,
2013-04-25 02:21:00,38.0,23.0,-100.00,SSE,150,13.0,15.0,53,0.00,,,-99.99,,2013-04-25 08:21:00,
2013-04-25 02:31:00,38.0,23.0,-100.00,SSE,150,13.0,15.0,53,0.00,,,-99.99,,2013-04-25 08:31:00,
2013-04-25 02:41:00,38.0,23.0,-100.00,SSE,150,13.0,15.0,54,0.00,,,-99.99,,2013-04-25 08:41:00,
2013-04-25 02:52:00,36.0,23.0,-100.00,SSE,155,10.0,11.0,57,0.00,,,-99.99,,2013-04-25 08:52:00,
2013-04-25 03:01:00,36.0,23.0,-100.00,SSE,155,10.0,11.0,57,0.00,,,-99.99,,2013-04-25 09:01:00,
2013-04-25 03:11:00,36.0,23.0,-100.00,SSE,165,6.0,10.0,57,0.00,,,-99.99,,2013-04-25 09:11:00,
2013-04-25 03:21:00,37.0,22.0,-100.00,SSW,196,6.0,7.0,56,0.00,,,-99.99,,2013-04-25 09:21:00,
2013-04-25 03:32:00,37.0,22.0,-100.00,SSW,196,6.0,7.0,56,0.00,,,-99.99,,2013-04-25 09:32:00,
2013-04-25 03:42:00,38.0,29.0,-100.00,SW,219,3.0,4.0,70,0.00,,,-99.99,,2013-04-25 09:42:00,
2013-04-25 03:52:00,35.0,28.0,-100.00,South,175,4.0,5.0,74,0.00,,,-99.99,,2013-04-25 09:52:00,
2013-04-25 04:02:00,35.0,28.0,-100.00,South,175,4.0,5.0,74,0.00,,,-99.99,,2013-04-25 10:02:00,
2013-04-25 04:12:00,33.0,25.0,-100.00,SSE,165,7.0,8.0,73,0.00,,,-99.99,,2013-04-25 10:12:00,
2013-04-25 04:22:00,33.0,25.0,-100.00,SSE,165,7.0,8.0,73,0.00,,,-99.99,,2013-04-25 10:22:00,
2013-04-25 04:32:00,33.0,25.0,-100.00,SSE,165,7.0,8.0,73,0.00,,,-99.99,,2013-04-25 10:32:00,
2013-04-25 04:42:00,33.0,24.0,-100.00,SSE,160,5.0,7.0,70,0.00,,,-99.99,,2013-04-25 10:42:00,
2013-04-25 04:53:00,34.0,24.0,-100.00,SE,136,5.0,6.0,65,0.00,,,-99.99,,2013-04-25 10:53:00,
2013-04-25 05:02:00,34.0,24.0,-100.00,SE,136,5.0,6.0,65,0.00,,,-99.99,,2013-04-25 11:02:00,
2013-04-25 05:12:00,32.0,23.0,-100.00,SSE,152,6.0,7.0,68,0.00,,,-99.99,,2013-04-25 11:12:00,
2013-04-25 05:22:00,32.0,23.0,-100.00,SSE,152,6.0,7.0,68,0.00,,,-99.99,,2013-04-25 11:22:00,
2013-04-25 05:32:00,32.0,23.0,-100.00,SSE,152,6.0,7.0,68,0.00,,,-99.99,,2013-04-25 11:32:00,
2013-04-25 05:42:00,31.0,22.0,-100.00,SE,143,7.0,8.0,68,0.00,,,-99.99,,2013-04-25 11:42:00,
2013-04-25 05:52:00,32.0,22.0,-100.00,SE,144,4.0,6.0,68,0.00,,,-99.99,,2013-04-25 11:52:00,
2013-04-25 06:01:00,32.0,22.0,-100.00,SE,144,4.0,6.0,68,0.00,,,-99.99,,2013-04-25 12:01:00,
2013-04-25 06:12:00,33.0,22.0,-100.00,SE,134,4.0,5.0,62,0.00,,,-99.99,,2013-04-25 12:12:00,
2013-04-25 06:21:00,33.0,22.0,-100.00,SE,134,4.0,5.0,62,0.00,,,-99.99,,2013-04-25 12:21:00,
2013-04-25 06:31:00,33.0,22.0,-100.00,SE,134,4.0,5.0,62,0.00,,,-99.99,,2013-04-25 12:31:00,
2013-04-25 06:41:00,30.0,21.0,-100.00,SE,134,7.0,8.0,69,0.00,,,-99.99,,2013-04-25 12:41:00,
2013-04-25 06:52:00,30.0,21.0,-100.00,SE,134,7.0,8.0,69,0.00,,,-99.99,,2013-04-25 12:52:00,
2013-04-25 07:02:00,30.0,21.0,-100.00,SE,134,7.0,8.0,69,0.00,,,-99.99,,2013-04-25 13:02:00,
2013-04-25 07:11:00,30.0,21.0,-100.00,SE,144,9.0,10.0,69,0.00,,,-99.99,,2013-04-25 13:11:00,
2013-04-25 07:21:00,32.0,21.0,-100.00,SE,141,10.0,13.0,64,0.00,,,-99.99,,2013-04-25 13:21:00,
2013-04-25 07:31:00,32.0,21.0,-100.00,SE,141,10.0,13.0,64,0.00,,,-99.99,,2013-04-25 13:31:00,
2013-04-25 07:42:00,32.0,21.0,-100.00,SE,141,10.0,13.0,64,0.00,,,-99.99,,2013-04-25 13:42:00,
2013-04-25 07:52:00,34.0,22.0,-100.00,SE,136,9.0,11.0,61,0.00,,,-99.99,,2013-04-25 13:52:00,
2013-04-25 08:01:00,34.0,22.0,-100.00,SE,136,9.0,11.0,61,0.00,,,-99.99,,2013-04-25 14:01:00,
2013-04-25 08:11:00,37.0,22.0,-100.00,SE,145,9.0,12.0,54,0.00,,,-99.99,,2013-04-25 14:11:00,
2013-04-25 08:21:00,40.0,22.0,-100.00,SSE,151,10.0,12.0,48,0.00,,,-99.99,,2013-04-25 14:21:00,
2013-04-25 08:32:00,40.0,22.0,-100.00,SSE,151,10.0,12.0,48,0.00,,,-99.99,,2013-04-25 14:32:00,
2013-04-25 08:42:00,41.0,24.0,-100.00,SW,219,4.0,6.0,51,0.00,,,-99.99,,2013-04-25 14:42:00,
2013-04-25 08:52:00,40.0,28.0,-100.00,West,271,5.0,6.0,61,0.00,,,-99.99,,2013-04-25 14:52:00,
2013-04-25 09:01:00,40.0,28.0,-100.00,West,271,5.0,6.0,61,0.00,,,-99.99,,2013-04-25 15:01:00,
2013-04-25 09:11:00,42.0,28.0,-100.00,WNW,291,5.0,7.0,57,0.00,,,-99.99,,2013-04-25 15:11:00,
2013-04-25 09:21:00,43.0,29.0,-100.00,WNW,295,4.0,5.0,58,0.00,,,-99.99,,2013-04-25 15:21:00,
2013-04-25 09:33:00,43.0,29.0,-100.00,WNW,295,4.0,5.0,58,0.00,,,-99.99,,2013-04-25 15:33:00,
2013-04-25 09:42:00,45.0,30.0,-100.00,West,274,3.0,5.0,54,0.00,,,-99.99,,2013-04-25 15:42:00,
2013-04-25 09:53:00,47.0,30.0,-100.00,WNW,282,2.0,4.0,52,0.00,,,-99.99,,2013-04-25 15:53:00,
2013-04-25 10:02:00,47.0,30.0,-100.00,WNW,282,2.0,4.0,52,0.00,,,-99.99,,2013-04-25 16:02:00,
2013-04-25 10:13:00,47.0,30.0,-100.00,SSW,212,4.0,5.0,51,0.00,,,-99.99,,2013-04-25 16:13:00,
2013-04-25 10:24:00,49.0,29.0,-100.00,SW,216,2.0,4.0,45,0.00,,,-99.99,,2013-04-25 16:24:00,
2013-04-25 10:32:00,49.0,29.0,-100.00,SW,216,2.0,4.0,45,0.00,,,-99.99,,2013-04-25 16:32:00,
2013-04-25 10:42:00,52.0,21.0,-100.00,SSW,195,4.0,5.0,30,0.00,,,-99.99,,2013-04-25 16:42:00,
2013-04-25 10:52:00,53.0,20.0,-100.00,SW,220,8.0,10.0,27,0.00,,,-99.99,,2013-04-25 16:52:00,
2013-04-25 11:02:00,53.0,20.0,-100.00,SW,220,8.0,10.0,27,0.00,,,-99.99,,2013-04-25 17:02:00,
2013-04-25 11:11:00,54.0,21.0,-100.00,SW,222,5.0,7.0,27,0.00,,,-99.99,,2013-04-25 17:11:00,
2013-04-25 11:22:00,55.0,23.0,-100.00,SW,220,7.0,10.0,28,0.00,,,-99.99,,2013-04-25 17:22:00,
2013-04-25 11:31:00,55.0,23.0,-100.00,SW,220,7.0,10.0,28,0.00,,,-99.99,,2013-04-25 17:31:00,
2013-04-25 11:42:00,57.0,21.0,-100.00,South,179,8.0,10.0,24,0.00,,,-99.99,,2013-04-25 17:42:00,
2013-04-25 11:53:00,57.0,24.0,-100.00,West,277,7.0,11.0,29,0.00,,,-99.99,,2013-04-25 17:53:00,
2013-04-25 12:01:00,57.0,24.0,-100.00,West,277,7.0,11.0,29,0.00,,,-99.99,,2013-04-25 18:01:00,
2013-04-25 12:11:00,58.0,19.0,-100.00,WSW,256,8.0,10.0,21,0.00,,,-99.99,,2013-04-25 18:11:00,
2013-04-25 12:21:00,59.0,19.0,-100.00,West,270,11.0,15.0,21,0.00,,,-99.99,,2013-04-25 18:21:00,
2013-04-25 12:31:00,59.0,19.0,-100.00,West,270,11.0,15.0,21,0.00,,,-99.99,,2013-04-25 18:31:00,
2013-04-25 12:42:00,60.0,15.0,-100.00,WSW,256,15.0,20.0,17,0.00,,,-99.99,,2013-04-25 18:42:00,
2013-04-25 12:52:00,61.0,20.0,-100.00,WSW,246,11.0,14.0,21,0.00,,,-99.99,,2013-04-25 18:52:00,
2013-04-25 13:01:00,61.0,20.0,-100.00,WSW,246,11.0,14.0,21,0.00,,,-99.99,,2013-04-25 19:01:00,
2013-04-25 13:12:00,60.0,19.0,-100.00,West,264,14.0,19.0,20,0.00,,,-99.99,,2013-04-25 19:12:00,
2013-04-25 13:21:00,60.0,19.0,-100.00,West,264,14.0,19.0,20,0.00,,,-99.99,,2013-04-25 19:21:00,
2013-04-25 13:31:00,60.0,19.0,-100.00,West,264,14.0,19.0,20,0.00,,,-99.99,,2013-04-25 19:31:00,
2013-04-25 13:41:00,61.0,17.0,-100.00,SW,233,13.0,19.0,17,0.00,,,-99.99,,2013-04-25 19:41:00,
2013-04-25 13:52:00,63.0,14.0,-100.00,WSW,240,11.0,16.0,14,0.00,,,-99.99,,2013-04-25 19:52:00,
2013-04-25 14:01:00,63.0,14.0,-100.00,WSW,240,11.0,16.0,14,0.00,,,-99.99,,2013-04-25 20:01:00,
2013-04-25 14:11:00,61.0,15.0,-100.00,SW,226,18.0,21.0,16,0.00,,,-99.99,,2013-04-25 20:11:00,
2013-04-25 14:22:00,61.0,15.0,-100.00,SW,226,18.0,21.0,16,0.00,,,-99.99,,2013-04-25 20:22:00,
2013-04-25 14:32:00,61.0,15.0,-100.00,SW,226,18.0,21.0,16,0.00,,,-99.99,,2013-04-25 20:32:00,
2013-04-25 14:42:00,63.0,13.0,-100.00,WSW,241,13.0,19.0,14,0.00,,,-99.99,,2013-04-25 20:42:00,
2013-04-25 14:52:00,63.0,13.0,-100.00,WSW,241,13.0,19.0,14,0.00,,,-99.99,,2013-04-25 20:52:00,
2013-04-25 15:01:00,63.0,13.0,-100.00,WSW,241,13.0,19.0,14,0.00,,,-99.99,,2013-04-25 21:01:00,
2013-04-25 15:11:00,65.0,16.0,-100.00,SW,230,15.0,18.0,15,0.00,,,-99.99,,2013-04-25 21:11:00,
2013-04-25 15:21:00,63.0,16.0,-100.00,SSW,210,13.0,17.0,16,0.00,,,-99.99,,2013-04-25 21:21:00,
2013-04-25 15:33:00,63.0,16.0,-100.00,SSW,210,13.0,17.0,16,0.00,,,-99.99,,2013-04-25 21:33:00,
2013-04-25 15:42:00,63.0,15.0,-100.00,SW,222,17.0,22.0,15,0.00,,,-99.99,,2013-04-25 21:42:00,
2013-04-25 15:52:00,63.0,15.0,-100.00,SW,222,17.0,22.0,15,0.00,,,-99.99,,2013-04-25 21:52:00,
2013-04-25 16:02:00,63.0,15.0,-100.00,SW,222,17.0,22.0,15,0.00,,,-99.99,,2013-04-25 22:02:00,
2013-04-25 16:12:00,64.0,16.0,-100.00,SW,223,18.0,23.0,15,0.00,,,-99.99,,2013-04-25 22:12:00,
2013-04-25 16:22:00,65.0,17.0,-100.00,SSW,209,16.0,22.0,16,0.00,,,-99.99,,2013-04-25 22:22:00,
2013-04-25 16:32:00,65.0,17.0,-100.00,SSW,209,16.0,22.0,16,0.00,,,-99.99,,2013-04-25 22:32:00,
2013-04-25 16:42:00,65.0,16.0,-100.00,SW,226,24.0,29.0,15,0.00,,,-99.99,,2013-04-25 22:42:00,
2013-04-25 16:52:00,64.0,15.0,-100.00,SW,219,21.0,25.0,15,0.00,,,-99.99,,2013-04-25 22:52:00,
2013-04-25 17:02:00,64.0,15.0,-100.00,SW,219,21.0,25.0,15,0.00,,,-99.99,,2013-04-25 23:02:00,
2013-04-25 17:12:00,64.0,15.0,-100.00,SW,219,21.0,25.0,15,0.00,,,-99.99,,2013-04-25 23:12:00,
2013-04-25 17:21:00,65.0,17.0,-100.00,WSW,247,18.0,24.0,15,0.00,,,-99.99,,2013-04-25 23:21:00,
2013-04-25 17:32:00,65.0,17.0,-100.00,WSW,247,18.0,24.0,15,0.00,,,-99.99,,2013-04-25 23:32:00,
2013-04-25 17:42:00,65.0,15.0,-100.00,WSW,243,19.0,22.0,14,0.00,,,-99.99,,2013-04-25 23:42:00,
2013-04-25 17:52:00,65.0,15.0,-100.00,WSW,243,19.0,22.0,14,0.00,,,-99.99,,2013-04-25 23:52:00,
2013-04-25 18:01:00,65.0,15.0,-100.00,WSW,243,19.0,22.0,14,0.00,,,-99.99,,2013-04-26 00:01:00,
2013-04-25 18:11:00,65.0,15.0,-100.00,SW,220,15.0,21.0,14,0.00,,,-99.99,,2013-04-26 00:11:00,
2013-04-25 18:21:00,65.0,14.0,-100.00,WSW,237,17.0,23.0,13,0.00,,,-99.99,,2013-04-26 00:21:00,
2013-04-25 18:31:00,65.0,14.0,-100.00,WSW,237,17.0,23.0,13,0.00,,,-99.99,,2013-04-26 00:31:00,
2013-04-25 18:41:00,65.0,15.0,-100.00,WSW,243,17.0,21.0,14,0.00,,,-99.99,,2013-04-26 00:41:00,
2013-04-25 18:52:00,65.0,13.0,-100.00,SW,233,18.0,22.0,13,0.00,,,-99.99,,2013-04-26 00:52:00,
2013-04-25 19:01:00,65.0,13.0,-100.00,SW,233,18.0,22.0,13,0.00,,,-99.99,,2013-04-26 01:01:00,
2013-04-25 19:11:00,65.0,18.0,-100.00,WSW,244,15.0,19.0,16,0.00,,,-99.99,,2013-04-26 01:11:00,
2013-04-25 19:21:00,64.0,20.0,-100.00,SW,230,16.0,19.0,18,0.00,,,-99.99,,2013-04-26 01:21:00,
2013-04-25 19:31:00,64.0,20.0,-100.00,SW,230,16.0,19.0,18,0.00,,,-99.99,,2013-04-26 01:31:00,
2013-04-25 19:41:00,64.0,17.0,-100.00,SW,230,13.0,17.0,16,0.00,,,-99.99,,2013-04-26 01:41:00,
2013-04-25 19:52:00,63.0,17.0,-100.00,SW,222,14.0,17.0,17,0.00,,,-99.99,,2013-04-26 01:52:00,
2013-04-25 20:01:00,63.0,17.0,-100.00,SW,222,14.0,17.0,17,0.00,,,-99.99,,2013-04-26 02:01:00,
2013-04-25 20:11:00,63.0,17.0,-100.00,SW,222,14.0,17.0,17,0.00,,,-99.99,,2013-04-26 02:11:00,
2013-04-25 20:21:00,62.0,18.0,-100.00,SW,223,11.0,14.0,18,0.00,,,-99.99,,2013-04-26 02:21:00,
2013-04-25 20:31:00,62.0,18.0,-100.00,SW,223,11.0,14.0,18,0.00,,,-99.99,,2013-04-26 02:31:00,
2013-04-25 20:42:00,58.0,18.0,-100.00,SSW,210,9.0,11.0,21,0.00,,,-99.99,,2013-04-26 02:42:00,
2013-04-25 20:52:00,55.0,19.0,-100.00,SSW,196,7.0,8.0,24,0.00,,,-99.99,,2013-04-26 02:52:00,
2013-04-25 21:01:00,55.0,19.0,-100.00,SSW,196,7.0,8.0,24,0.00,,,-99.99,,2013-04-26 03:01:00,
2013-04-25 21:11:00,54.0,18.0,-100.00,South,191,6.0,8.0,24,0.00,,,-99.99,,2013-04-26 03:11:00,
2013-04-25 21:21:00,54.0,18.0,-100.00,South,191,6.0,8.0,24,0.00,,,-99.99,,2013-04-26 03:21:00,
2013-04-25 21:32:00,54.0,18.0,-100.00,South,191,6.0,8.0,24,0.00,,,-99.99,,2013-04-26 03:32:00,
2013-04-25 21:43:00,50.0,19.0,-100.00,South,171,8.0,9.0,29,0.00,,,-99.99,,2013-04-26 03:43:00,
2013-04-25 21:53:00,48.0,19.0,-100.00,SE,138,9.0,9.0,31,0.00,,,-99.99,,2013-04-26 03:53:00,
2013-04-25 22:02:00,48.0,19.0,-100.00,SE,138,9.0,9.0,31,0.00,,,-99.99,,2013-04-26 04:02:00,
2013-04-25 22:12:00,48.0,18.0,-100.00,SSE,147,10.0,11.0,31,0.00,,,-99.99,,2013-04-26 04:12:00,
2013-04-25 22:22:00,48.0,18.0,-100.00,SSE,147,10.0,11.0,31,0.00,,,-99.99,,2013-04-26 04:22:00,
2013-04-25 22:32:00,48.0,18.0,-100.00,SSE,147,10.0,11.0,31,0.00,,,-99.99,,2013-04-26 04:32:00,
2013-04-25 22:43:00,52.0,19.0,-100.00,SSE,158,10.0,11.0,27,0.00,,,-99.99,,2013-04-26 04:43:00,
2013-04-25 22:53:00,50.0,19.0,-100.00,SSE,158,10.0,11.0,29,0.00,,,-99.99,,2013-04-26 04:53:00,
2013-04-25 23:02:00,50.0,19.0,-100.00,SSE,158,10.0,11.0,29,0.00,,,-99.99,,2013-04-26 05:02:00,
2013-04-25 23:12:00,51.0,20.0,-100.00,SSE,165,9.0,10.0,29,0.00,,,-99.99,,2013-04-26 05:12:00,
2013-04-25 23:22:00,49.0,19.0,-100.00,SSE,157,10.0,11.0,31,0.00,,,-99.99,,2013-04-26 05:22:00,
2013-04-25 23:32:00,49.0,19.0,-100.00,SSE,157,10.0,11.0,31,0.00,,,-99.99,,2013-04-26 05:32:00,
2013-04-25 23:41:00,49.0,19.0,-100.00,SSE,157,10.0,11.0,31,0.00,,,-99.99,,2013-04-26 05:41:00,
2013-04-25 23:52:00,51.0,19.0,-100.00,SSE,158,10.0,12.0,28,0.00,,,-99.99,,2013-04-26 05:52:00,